N4SZO-7 Weather Reports


Display with metric or nautical units.
time (UTC)temp
F
wind
direction
speed
MPH
gust
MPH
rain 1hr
in
rain 24hr
in
rain mn
in
humidity
%
barometer
mb
20260510153258 71 306 2.0 3.0 0.00 0.43 0.00 89 1018.8
20260510152757 72 317 2.0 3.0 0.00 0.45 0.00 90 1018.6
20260510152258 72 243 0.0 2.0 0.00 0.46 0.00 90 1018.8
20260510151757 72 193 2.0 3.0 0.00 0.48 0.00 91 1018.7
20260510151257 71 273 0.0 3.0 0.00 0.50 0.00 91 1018.6
20260510150757 71 233 2.0 3.0 0.00 0.51 0.00 93 1018.9
20260510150257 70 249 1.0 5.0 0.00 0.52 0.00 92 1018.8
20260510145757 70 277 2.0 5.0 0.00 0.55 0.00 92 1018.8
20260510145258 70 289 2.0 2.0 0.00 0.57 0.00 93 1019.0
20260510144757 70 202 0.0 2.0 0.00 0.58 0.00 94 1019.1
20260510144257 70 306 0.0 2.0 0.00 0.59 0.00 94 1019.2
20260510143757 70 8 2.0 4.0 0.00 0.60 0.00 93 1019.0
20260510143257 70 302 0.0 4.0 0.00 0.61 0.00 95 1019.1
20260510143022 70 275 3.0 4.0 0.00 0.63 0.00 93 1018.8
20260510142523 70 282 0.0 2.0 0.00 0.64 0.00 93 1019.0
20260510142025 70 247 2.0 2.0 0.00 0.65 0.00 95 1019.1
20260510141311 69 291 0.0 2.0 0.00 0.67 0.00 96 1018.9
20260510140804 69 276 0.0 2.0 0.00 0.69 0.00 96 1018.8
20260510140523 69 309 0.0 2.0 0.00 0.71 0.00 97 1018.9
20260510135757 68 255 0.0 2.0 0.00 0.72 0.00 98 1018.8
20260510135257 68 330 0.0 2.0 0.00 0.72 0.00 98 1018.8
20260510134757 67 311 0.0 2.0 0.00 0.72 0.00 98 1018.5
20260510134257 68 140 1.0 2.0 0.00 0.73 0.00 98 1018.6
20260510133757 68 239 1.0 2.0 0.00 0.73 0.00 99 1018.6
20260510133258 67 285 1.0 2.0 0.00 0.74 0.00 99 1018.8
20260510132757 67 218 0.0 2.0 0.00 0.74 0.00 99 1018.5
20260510132258 67 279 2.0 2.0 0.00 0.74 0.00 99 1018.6
20260510131757 67 227 0.0 2.0 0.00 0.74 0.00 99 1018.4
20260510131258 67 264 1.0 2.0 0.00 0.74 0.00 99 1018.4
20260510130758 67 277 0.0 3.0 0.00 0.75 0.00 99 1018.3
20260510130257 67 298 1.0 3.0 0.00 0.76 0.00 99 1018.3
20260510125758 66 261 1.0 3.0 0.00 0.76 0.00 99 1018.3
20260510125523 66 281 1.0 3.0 0.00 0.77 0.00 99 1018.4
20260510125022 66 303 1.0 2.0 0.00 0.77 0.00 99 1018.2
20260510124257 66 234 2.0 2.0 0.00 0.77 0.00 99 1018.2
20260510123757 66 276 2.0 2.0 0.00 0.77 0.00 99 1018.1
20260510123258 65 287 0.0 3.0 0.00 0.77 0.00 99 1018.0
20260510122804 65 267 1.0 3.0 0.00 0.77 0.00 99 1017.9
20260510122258 66 293 0.0 2.0 0.00 0.77 0.00 99 1017.9
20260510121757 65 273 2.0 2.0 0.00 0.77 0.00 99 1017.8
20260510120757 65 284 2.0 3.0 0.00 0.77 0.00 99 1017.5
20260510120257 65 279 1.0 4.0 0.00 0.77 0.00 99 1017.5
20260510115757 65 269 0.0 4.0 0.00 0.77 0.00 99 1017.3
20260510115258 65 302 1.0 2.0 0.00 0.77 0.00 99 1017.2
20260510114758 65 265 1.0 2.0 0.00 0.77 0.00 99 1017.3
20260510114304 65 309 1.0 2.0 0.00 0.77 0.00 99 1017.2
20260510113757 65 254 2.0 2.0 0.00 0.77 0.00 99 1017.0
20260510113257 65 294 1.0 2.0 0.00 0.77 0.00 99 1016.9
20260510112258 65 235 0.0 2.0 0.00 0.77 0.00 99 1016.8
20260510112017 65 293 0.0 2.0 0.00 0.77 0.00 99 1016.8
20260510111257 65 304 0.0 2.0 0.00 0.77 0.00 99 1016.7
20260510110757 65 89 0.0 2.0 0.00 0.77 0.00 99 1016.8
20260510110519 65 310 0.0 2.0 0.00 0.77 0.00 99 1016.7
20260510110019 65 256 2.0 2.0 0.00 0.78 0.00 99 1016.4
20260510105257 65 263 1.0 2.0 0.00 0.78 0.00 99 1016.6
20260510104804 65 314 1.0 2.0 0.00 0.78 0.00 99 1016.4
20260510104304 65 286 1.0 2.0 0.00 0.78 0.00 99 1016.2
20260510103757 65 290 0.0 2.0 0.00 0.78 0.00 99 1016.2
20260510103258 65 313 0.0 2.0 0.00 0.78 0.00 99 1016.3
20260510102757 65 258 1.0 2.0 0.00 0.78 0.00 99 1016.2
20260510102257 65 255 0.0 2.0 0.00 0.78 0.00 99 1016.0
20260510101757 65 245 0.0 2.0 0.00 0.78 0.00 99 1016.0
20260510101257 65 252 1.0 2.0 0.00 0.78 0.00 99 1016.0
20260510100757 65 250 1.0 2.0 0.00 0.78 0.00 99 1016.1
20260510100257 65 212 0.0 2.0 0.00 0.78 0.00 99 1015.9
20260510095758 65 253 2.0 2.0 0.00 0.79 0.00 99 1015.8
20260510095257 65 262 1.0 2.0 0.00 0.79 0.00 99 1015.9
20260510095027 65 263 0.0 2.0 0.00 0.79 0.00 99 1015.9
20260510094257 65 279 1.0 2.0 0.00 0.79 0.00 99 1015.7
20260510093757 65 228 0.0 2.0 0.00 0.79 0.00 99 1015.7
20260510093257 65 249 1.0 3.0 0.00 0.79 0.00 99 1015.7
20260510092804 65 266 1.0 3.0 0.00 0.79 0.00 99 1015.6
20260510092257 65 294 2.0 3.0 0.00 0.79 0.00 99 1015.6
20260510091758 65 288 0.0 2.0 0.00 0.79 0.00 99 1015.5
20260510091251 65 293 1.0 2.0 0.00 0.79 0.00 98 1015.3
20260510090745 65 257 1.0 2.0 0.00 0.79 0.00 99 1015.2
20260510090509 65 251 1.0 2.0 0.00 0.80 0.00 98 1015.2
20260510085745 65 262 2.0 2.0 0.00 0.80 0.00 98 1015.0
20260510085245 65 245 0.0 2.0 0.00 0.81 0.00 98 1015.1
20260510084745 65 249 0.0 2.0 0.00 0.81 0.00 98 1015.3
20260510084245 66 240 1.0 2.0 0.00 0.81 0.00 98 1015.0
20260510083745 66 283 0.0 2.0 0.00 0.81 0.00 98 1015.1
20260510083245 66 268 0.0 3.0 0.00 0.81 0.00 98 1015.0
20260510082745 65 288 1.0 3.0 0.00 0.81 0.00 98 1014.8
20260510082245 66 271 0.0 2.0 0.00 0.81 0.00 98 1015.0
20260510081746 66 311 1.0 3.0 0.00 0.81 0.00 98 1014.8
20260510081245 66 268 1.0 3.0 0.00 0.81 0.00 98 1014.8
20260510080745 66 268 1.0 3.0 0.00 0.83 0.00 98 1014.7
20260510080253 66 275 1.0 3.0 0.00 0.83 0.00 98 1014.8
20260510075745 66 265 2.0 3.0 0.00 0.83 0.00 98 1014.5
20260510075246 66 268 1.0 3.0 0.00 0.84 0.00 98 1014.4
20260510074753 66 277 2.0 3.0 0.00 0.85 0.00 98 1014.5
20260510074245 66 260 1.0 2.0 0.00 0.86 0.00 98 1014.3
20260510073745 66 7 0.0 2.0 0.00 0.87 0.00 98 1014.4
20260510073509 66 257 1.0 2.0 0.00 0.87 0.00 98 1014.6
20260510072745 66 281 1.0 3.0 0.00 0.87 0.00 99 1014.6
20260510072246 67 297 1.0 3.0 0.00 0.88 0.00 98 1014.8
20260510071745 67 298 2.0 3.0 0.00 0.88 0.00 99 1014.7
20260510071246 67 248 0.0 3.0 0.00 0.89 0.00 99 1014.9
20260510070746 67 317 2.0 3.0 0.00 0.89 0.00 99 1014.7
20260510070245 67 285 1.0 2.0 0.00 0.89 0.00 99 1014.7
20260510065745 67 279 1.0 3.0 0.00 0.89 0.00 98 1014.7
20260510065245 67 255 1.0 3.0 0.00 0.89 0.00 98 1014.7
20260510064745 67 288 1.0 2.0 0.00 0.89 0.00 98 1014.7
20260510063746 67 266 0.0 2.0 0.00 0.89 0.00 98 1014.6
20260510063246 67 241 0.0 2.0 0.00 0.89 0.00 98 1014.6
20260510062745 67 219 0.0 2.0 0.00 0.89 0.00 98 1014.4
20260510062516 67 269 0.0 2.0 0.00 0.89 0.00 98 1014.5
20260510061746 67 224 0.0 2.0 0.00 0.89 0.00 98 1014.2
20260510061507 67 5 0.0 2.0 0.00 0.89 0.00 98 1014.3
20260510060746 67 221 0.0 2.0 0.00 0.89 0.00 98 1014.5
20260510060245 67 290 0.0 2.0 0.00 0.89 0.00 98 1014.6
20260510060009 66 251 0.0 2.0 0.00 0.89 0.00 98 1014.6
20260510055239 66 313 2.0 2.0 0.00 0.89 0.00 98 1014.7
20260510054733 66 237 0.0 2.0 0.00 0.89 0.00 98 1014.8
20260510054249 67 278 1.0 3.0 0.00 0.89 0.00 98 1014.7
20260510053233 67 322 2.0 2.0 0.00 0.89 0.00 98 1014.4
20260510052734 67 267 1.0 2.0 0.00 0.89 0.00 98 1014.9
20260510052233 67 283 0.0 2.0 0.00 0.89 0.00 98 1014.6
20260510051733 67 236 1.0 2.0 0.00 0.89 0.00 98 1014.5
20260510051234 67 227 0.0 2.0 0.00 0.89 0.00 98 1015.0
20260510050233 67 278 1.0 2.0 0.00 0.89 0.00 98 1015.2
20260510045740 67 273 1.0 3.0 0.00 0.89 0.89 98 1015.1
20260510045233 67 292 3.0 3.0 0.00 0.89 0.89 98 1015.1
20260510044953 67 285 2.0 3.0 0.00 0.89 0.89 98 1015.3
20260510044451 67 307 1.0 3.0 0.00 0.89 0.89 98 1015.4
20260510043959 67 291 2.0 3.0 0.00 0.89 0.89 98 1015.2
20260510043233 67 315 1.0 2.0 0.00 0.89 0.89 98 1015.4
20260510042733 67 280 1.0 3.0 0.00 0.89 0.89 98 1015.5
20260510042233 67 234 1.0 3.0 0.00 0.89 0.89 98 1015.6
20260510041733 67 273 2.0 2.0 0.00 0.89 0.89 98 1015.6
20260510041233 67 258 0.0 3.0 0.00 0.89 0.89 98 1015.9
20260510040733 67 297 2.0 3.0 0.00 0.89 0.89 98 1015.9
20260510040234 67 246 0.0 4.0 0.00 0.89 0.89 98 1016.0
20260510035953 67 313 3.0 4.0 0.00 0.89 0.89 98 1016.3
20260510035233 67 273 1.0 3.0 0.00 0.89 0.89 98 1016.0
20260510034734 67 266 0.0 2.0 0.00 0.89 0.89 98 1015.5
20260510034233 67 299 1.0 2.0 0.00 0.89 0.89 98 1015.5
20260510033734 67 129 0.0 2.0 0.00 0.89 0.89 98 1015.4
20260510033233 67 311 0.0 2.0 0.00 0.89 0.89 98 1015.4
20260510032733 67 214 0.0 2.0 0.00 0.89 0.89 98 1015.2
20260510032233 67 251 0.0 2.0 0.00 0.89 0.89 98 1015.8
20260510031734 67 233 1.0 2.0 0.00 0.89 0.89 98 1015.8
20260510031233 67 264 1.0 2.0 0.00 0.89 0.89 98 1015.5
20260510030733 67 271 1.0 2.0 0.00 0.89 0.89 98 1015.7
20260510030233 67 308 1.0 2.0 0.00 0.89 0.89 98 1015.8
20260510030001 67 333 0.0 2.0 0.00 0.89 0.89 98 1015.6
20260510025234 67 309 0.0 2.0 0.00 0.89 0.89 98 1015.6
20260510024733 67 253 2.0 2.0 0.00 0.89 0.89 98 1015.6
20260510024233 67 267 1.0 2.0 0.00 0.89 0.89 98 1015.3
20260510023734 67 298 1.0 2.0 0.00 0.89 0.89 98 1015.2
20260510023500 68 248 0.0 2.0 0.00 0.89 0.89 98 1015.0
20260510022733 68 245 1.0 2.0 0.00 0.89 0.89 98 1015.1
20260510022233 68 260 0.0 1.0 0.00 0.89 0.89 98 1014.8
20260510021733 68 269 0.0 2.0 0.00 0.89 0.89 98 1015.0
20260510021234 68 242 0.0 2.0 0.00 0.90 0.89 98 1015.0
20260510020733 68 259 0.0 2.0 0.00 0.91 0.89 98 1015.0
20260510020234 68 269 1.0 2.0 0.00 0.91 0.89 98 1015.0
20260510015733 68 327 0.0 2.0 0.00 0.92 0.89 98 1015.1
20260510015234 68 315 1.0 2.0 0.00 0.93 0.89 98 1015.3
20260510014733 68 310 0.0 2.0 0.00 0.94 0.89 98 1015.3
20260510014452 68 255 0.0 2.0 0.00 0.94 0.89 98 1015.4
20260510013734 68 289 1.0 2.0 0.00 0.94 0.89 98 1015.3
20260510013233 68 309 0.0 2.0 0.01 0.94 0.89 98 1015.2
20260510012952 68 293 0.0 2.0 0.01 0.94 0.89 98 1014.9
20260510012234 68 246 0.0 2.0 0.01 0.94 0.89 98 1014.8
20260510011733 68 39 0.0 2.0 0.01 0.94 0.89 98 1014.7
20260510011233 68 242 0.0 2.0 0.01 0.94 0.89 98 1014.9
20260510010733 68 26 1.0 2.0 0.02 0.95 0.89 98 1014.9
20260510010234 68 283 0.0 2.0 0.01 0.94 0.89 98 1015.0
20260510005741 68 264 0.0 2.0 0.01 0.94 0.89 98 1014.9
20260510005234 68 295 0.0 2.0 0.01 0.94 0.89 98 1015.1
20260510004733 68 263 0.0 3.0 0.01 0.94 0.89 98 1015.0
20260510004233 68 256 2.0 3.0 0.01 0.95 0.89 98 1015.1
20260510003733 68 294 0.0 3.0 0.01 0.95 0.89 98 1015.1
20260510003234 68 248 2.0 3.0 0.01 0.94 0.88 98 1015.2
20260510002733 68 289 2.0 3.0 0.01 0.94 0.88 98 1015.2
20260510002233 68 333 0.0 4.0 0.01 0.94 0.88 98 1015.3
20260510001733 68 258 3.0 4.0 0.01 0.94 0.88 98 1015.1
20260510001459 68 305 2.0 2.0 0.02 0.94 0.88 98 1014.7
20260510000733 68 241 1.0 2.0 0.01 0.94 0.87 97 1014.3
20260510000233 68 322 0.0 2.0 0.02 0.94 0.87 97 1014.3
20260509235733 68 322 1.0 2.0 0.02 0.94 0.87 97 1014.0
20260509235502 68 125 0.0 2.0 0.02 0.94 0.87 97 1013.6
20260509234746 68 240 0.0 2.0 0.03 0.94 0.87 97 1013.7
20260509234233 69 309 0.0 2.0 0.03 0.94 0.87 97 1013.4
20260509233734 69 269 0.0 3.0 0.04 0.94 0.87 97 1013.9
20260509233234 69 265 2.0 3.0 0.04 0.94 0.87 97 1014.3
20260509232734 69 218 2.0 3.0 0.05 0.94 0.87 97 1014.6
20260509232233 69 256 2.0 3.0 0.05 0.93 0.87 97 1014.6
20260509231733 69 229 1.0 4.0 0.04 0.93 0.87 97 1014.4
20260509231454 69 272 1.0 4.0 0.04 0.93 0.86 97 1014.1
20260509230740 69 264 2.0 4.0 0.04 0.93 0.86 97 1014.3
20260509230459 69 268 2.0 4.0 0.04 0.93 0.86 97 1013.9
20260509225733 69 314 2.0 3.0 0.04 0.93 0.85 97 1013.2
20260509225233 69 284 0.0 3.0 0.04 0.93 0.85 97 1013.2
20260509224733 69 254 1.0 3.0 0.04 0.93 0.85 97 1013.4
20260509224233 69 303 1.0 2.0 0.03 0.93 0.84 97 1013.3
20260509223733 69 189 1.0 2.0 0.02 0.93 0.84 97 1013.3
20260509223233 69 165 1.0 2.0 0.02 0.93 0.83 97 1013.3
20260509222948 69 246 0.0 2.0 0.02 0.93 0.83 97 1013.6
20260509222502 69 232 1.0 2.0 0.02 0.93 0.82 97 1014.1
20260509221733 69 245 0.0 2.0 0.02 0.93 0.82 97 1014.0
20260509221234 69 286 2.0 2.0 0.02 0.94 0.82 97 1014.0
20260509220953 69 335 1.0 3.0 0.02 0.94 0.82 97 1013.8
20260509220233 69 214 0.0 3.0 0.02 0.95 0.81 97 1013.8
20260509215733 69 317 2.0 2.0 0.02 0.96 0.81 97 1013.9
20260509215233 69 256 0.0 2.0 0.02 0.96 0.81 97 1014.0
20260509214733 69 315 0.0 2.0 0.02 0.96 0.81 97 1014.0
20260509214234 69 257 0.0 3.0 0.02 0.97 0.81 97 1013.7
20260509213733 69 286 0.0 3.0 0.02 0.98 0.81 96 1014.3
20260509213233 69 290 2.0 2.0 0.02 1.00 0.81 96 1014.0
20260509212734 69 300 2.0 3.0 0.02 1.01 0.81 96 1014.1
20260509212233 69 245 1.0 3.0 0.02 1.02 0.80 96 1014.2
20260509211953 69 275 1.0 3.0 0.01 1.02 0.80 96 1014.4
20260509211233 69 332 0.0 3.0 0.01 1.05 0.80 96 1014.0
20260509210733 69 218 0.0 3.0 0.01 1.08 0.80 96 1014.2
20260509210234 69 296 1.0 3.0 0.01 1.12 0.80 96 1013.7
20260509205952 69 294 2.0 2.0 0.01 1.18 0.80 96 1013.4
20260509205457 69 255 0.0 3.0 0.00 1.19 0.79 95 1013.6
20260509205005 69 252 0.0 3.0 0.00 1.21 0.79 95 1013.7
20260509204233 69 327 2.0 3.0 0.00 1.23 0.79 95 1013.5
20260509203733 69 263 1.0 3.0 0.00 1.26 0.79 96 1013.3
20260509203233 69 278 1.0 3.0 0.00 1.31 0.79 96 1013.6
20260509202733 69 259 2.0 4.0 0.00 1.33 0.79 95 1013.9
20260509202234 69 242 2.0 4.0 0.00 1.35 0.79 95 1013.8
20260509201733 69 255 2.0 4.0 0.00 1.35 0.79 95 1013.7
20260509201233 69 313 1.0 4.0 0.00 1.35 0.79 94 1013.5
20260509200952 69 289 2.0 4.0 0.00 1.36 0.79 94 1013.6
20260509195733 69 237 1.0 3.0 0.00 1.37 0.79 95 1013.1
20260509195233 69 215 3.0 3.0 0.00 1.38 0.79 96 1012.8
20260509194953 69 292 2.0 5.0 0.00 1.39 0.79 94 1013.0
20260509194233 69 292 0.0 5.0 0.00 1.39 0.79 95 1012.8
20260509193733 69 216 4.0 5.0 0.00 1.41 0.79 95 1013.1
20260509193233 69 251 5.0 5.0 0.00 1.42 0.79 95 1013.0
20260509192733 69 292 2.0 3.0 0.00 1.42 0.79 96 1011.5
20260509192233 69 309 0.0 3.0 0.00 1.43 0.79 95 1012.2
20260509191733 69 169 1.0 4.0 0.00 1.43 0.79 95 1012.0
20260509191453 69 279 1.0 4.0 0.00 1.43 0.79 94 1012.1
20260509190740 69 277 3.0 4.0 0.00 1.43 0.79 94 1012.1
20260509190233 69 204 2.0 3.0 0.00 1.43 0.78 94 1011.8
20260509185733 69 304 0.0 3.0 0.00 1.43 0.78 95 1012.1
20260509185458 69 291 1.0 3.0 0.00 1.44 0.78 93 1012.5
20260509184948 69 220 1.0 4.0 0.00 1.44 0.78 93 1012.5
20260509184453 69 269 0.0 5.0 0.00 1.44 0.78 92 1013.0
20260509183734 69 297 0.0 6.0 0.00 1.44 0.78 92 1013.0
20260509183233 69 210 3.0 6.0 0.00 1.44 0.78 91 1013.2
20260509182733 69 254 2.0 6.0 0.00 1.44 0.78 92 1013.2
20260509182458 69 303 3.0 6.0 0.00 1.44 0.78 91 1013.0
20260509181733 69 234 1.0 6.0 0.00 1.44 0.78 92 1013.1
20260509181233 68 269 0.0 5.0 0.00 1.44 0.78 94 1012.9
20260509180747 68 312 0.0 5.0 0.00 1.44 0.78 94 1012.9
20260509180233 68 86 1.0 4.0 0.00 1.44 0.78 94 1013.0
20260509175952 67 240 0.0 3.0 0.00 1.44 0.78 95 1012.9
20260509175233 67 197 0.0 6.0 0.01 1.44 0.78 96 1012.8
20260509174733 67 266 1.0 6.0 0.01 1.44 0.78 96 1012.8
20260509174234 67 238 3.0 6.0 0.02 1.44 0.78 96 1013.1
20260509173733 67 111 1.0 4.0 0.03 1.44 0.78 96 1013.3
20260509173234 67 180 0.0 6.0 0.05 1.44 0.78 96 1013.4
20260509172733 66 169 1.0 6.0 0.06 1.44 0.78 96 1014.0
20260509172233 66 11 2.0 4.0 0.08 1.44 0.78 97 1014.2
20260509171733 66 29 2.0 3.0 0.10 1.44 0.78 97 1014.4
20260509171233 66 247 1.0 3.0 0.14 1.44 0.78 97 1014.7
20260509170733 66 67 1.0 3.0 0.16 1.44 0.78 97 1014.9
20260509170232 66 315 0.0 4.0 0.18 1.44 0.78 97 1015.0
20260509165956 65 3 0.0 5.0 0.20 1.44 0.78 97 1015.1
20260509165234 65 320 1.0 5.0 0.22 1.43 0.78 98 1015.2
20260509164733 65 159 1.0 3.0 0.24 1.43 0.77 98 1015.3
20260509164240 65 356 0.0 3.0 0.25 1.42 0.76 98 1015.6
20260509163733 65 57 0.0 3.0 0.26 1.41 0.75 98 1016.0
20260509163453 65 56 2.0 2.0 0.27 1.39 0.74 98 1016.1
20260509162733 65 269 0.0 2.0 0.28 1.38 0.72 98 1016.3
20260509162233 65 264 1.0 3.0 0.27 1.36 0.71 98 1016.7
20260509161733 65 241 1.0 3.0 0.27 1.34 0.69 98 1016.8
20260509160733 65 304 0.0 3.0 0.24 1.29 0.62 98 1016.6
20260509160234 65 265 3.0 3.0 0.23 1.30 0.60 98 1017.0
20260509155956 65 252 1.0 2.0 0.24 1.28 0.58 98 1017.0
20260509155233 65 269 0.0 2.0 0.23 1.28 0.56 98 1016.9
20260509154733 65 287 0.0 2.0 0.22 1.25 0.54 98 1016.9
20260509153741 65 272 1.0 2.0 0.19 1.20 0.49 98 1017.1
20260509153450 65 278 1.0 2.0 0.18 1.18 0.46 98 1016.8